Find Starlink 2699

NORAD ID: 48433 Int'l Des: 2021-040 Owner: SPXS Country: US Constellation: starlink operational
LEOCIRCULARSTARLINK_TYPE

現在のビュー

3D地球を読み込み中...

About Starlink 2699

Starlink 2699 (NORAD 48433) is a starlink constellation satellite (v1.0) launched May 9, 2021 by SPXS of US. It operates in LEO, CIRCULAR, STARLINK_TYPE orbit with a mass of 260.00 kg.

Starlink 2699について

説明を読み込み中...

次回通過

Passes for default location (London). Set your location on the main map for personalized predictions.

高度履歴

Loading altitude history...

軌道要素

1 48433U 21040F 26170.95034978 .00000436 00000-0 25810-4 0 9993
2 48433 53.1608 36.8805 0001214 83.6780 276.4360 15.31698918282693
Epoch: Jun 19, 2026 • Age: 15 hours

現在のステータス

高度 470.8 km
速度 7.63 km/s
衛星直下点 17.45°N, 87.85°E
打ち上げ日 May 9, 2021
運用期間 5.1 years
タイプ internet

技術仕様

分類 Payload
質量 260.00 kg
乾燥質量 248.00 kg
総質量 260.00 kg
長さ 0.20 m
直径 2.80 m
スパン 9.00 m
形状 Box + pan
製造者 SPXS
バスタイプ Starlink
フェーズステータス In Orbit
所有者/国 SPXS/US

Most Searched